Location: Hohe Wand Kleine Kanzel
(47.8330°N, 16.0170°E)
Time: 15:02:56
(UTC+02:00)

Vanguard 3 - Pass Details

Date: 07 August 2021
Orbit: 509 x 3260 km, 33.4° (Epoch: 27 September)

Event Time Altitude Azimuth Distance (km) Brightness Sun altitude
Rises 23:38:28 0° 274° (W) 6,696 12.2 -23.4°
Reaches altitude 10° 23:44:26 10° 261° (W) 5,967 11.7 -23.7°
Maximum altitude 23:56:29 21° 222° (SW) 5,300 11.0 -24.4°
Enters shadow 00:02:19 18° 201° (SSW) 5,450 10.9 -24.7°
